Terminal Aerodrome Forecast
Issued by NWS Goodland, KS

Home | Current Version | Previous Version | Text Only | Print | Product List | Glossary On
Versions: 1 2 3 4 5 6 7 8 9 10 11 12 13 14
000
FTUS43 KGLD 271125
TAFGLD
TAF
KGLD 271125Z 2712/2812 17012KT P6SM SKC
     FM271700 17020G32KT P6SM SKC
     FM280100 16014KT P6SM SKC
     FM280900 16010KT 6SM BR SCT020=

USA.gov is the U.S. government's official web portal to all federal, state and local government web resources and services.